Weather History for Westerly, RI

Change the Weather History Date:

Friday, December 27, 2013

  Actual Average (KGON) Record (KGON)
Temperature  
Mean Temperature 29 °F -  
Max Temperature 37 °F 34 °F 60 °F (1973)
Min Temperature 21 °F 19 °F 4 °F (1993)
Degree Days  
Heating Degree Days 36    
Moisture  
Dew Point 20 °F    
Average Humidity 68    
Maximum Humidity 92    
Minimum Humidity 44    
Precipitation  
Precipitation 0.00 in - - ()
Sea Level Pressure  
Sea Level Pressure 30.28 in    
Wind  
Wind Speed 3 mph (West)    
Max Wind Speed 12 mph    
Max Gust Speed 17 mph    
Visibility 10 miles    
Events      
Averages and records for this station are not official NWS values.
T = Trace of Precipitation, MM = Missing Value Source: NWS Daily Summary

Daily Weather History Graph

Daily Weather History Graph

Search for Another Location

Airport:

Trip Planner

Search our weather history database for the weather conditions in past years. The results will help you decide how hot, cold, wet, or windy it might be!

Date:

Astronomy

Dec. 27, 2013 Rise Set
Actual Time 7:12 AM EST 4:24 PM EST
Civil Twilight 6:40 AM EST 4:56 PM EST
Nautical Twilight 6:06 AM EST 5:30 PM EST
Astronomical Twilight 5:32 AM EST 6:04 PM EST
Moon 1:38 AM EST (12/27) 12:35 PM EST (12/27)
Length of Visible Light 10h 15m
Length of Day
9h 12m
Waning Crescent, 28% of the Moon is Illuminated
Dec 27
Waning Crescent
Jan 1
New
Jan 7
First Quarter
Jan 15
Full
Jan 24
Last Quarter

Hourly Weather History & Observations

Time (EST) Temp. Windchill Dew Point Humidity Pressure Visibility Wind Dir Wind Speed Gust Speed Precip Events Conditions
12:53 AM 28.0 °F - 23.0 °F 81% 30.26 in 10.0 mi Calm Calm - N/A   Clear
1:53 AM 27.0 °F 23.0 °F 21.9 °F 81% 30.27 in 10.0 mi West 3.5 mph - N/A   Clear
2:53 AM 26.1 °F 21.9 °F 21.9 °F 84% 30.28 in 10.0 mi WNW 3.5 mph - N/A   Clear
3:53 AM 24.1 °F - 21.0 °F 88% 30.28 in 10.0 mi Calm Calm - N/A   Clear
4:53 AM 21.9 °F - 19.9 °F 92% 30.29 in 7.0 mi Calm Calm - N/A   Clear
5:53 AM 21.0 °F - 19.0 °F 92% 30.30 in 7.0 mi Calm Calm - N/A   Clear
6:53 AM 21.0 °F - 18.0 °F 88% 30.30 in 8.0 mi Calm Calm - N/A   Clear
7:53 AM 21.9 °F - 19.0 °F 89% 30.31 in 6.0 mi Calm Calm - N/A   Clear
8:53 AM 28.0 °F 22.8 °F 21.9 °F 78% 30.32 in 10.0 mi WSW 4.6 mph - N/A   Clear
9:53 AM 30.9 °F 25.2 °F 21.9 °F 69% 30.32 in 10.0 mi Variable 5.8 mph - N/A   Clear
10:53 AM 35.1 °F 28.6 °F 21.0 °F 57% 30.30 in 10.0 mi NW 8.1 mph - N/A   Clear
11:53 AM 36.0 °F 30.3 °F 18.0 °F 48% 30.27 in 10.0 mi WNW 6.9 mph - N/A   Clear
12:53 PM 37.0 °F 33.3 °F 17.1 °F 44% 30.26 in 10.0 mi Variable 4.6 mph - N/A   Mostly Cloudy
1:53 PM 37.0 °F 30.4 °F 19.9 °F 50% 30.25 in 10.0 mi SW 9.2 mph - N/A   Clear
2:53 PM 37.0 °F 29.3 °F 21.9 °F 54% 30.25 in 10.0 mi SW 11.5 mph 17.3 mph N/A   Overcast
3:53 PM 36.0 °F 28.5 °F 21.9 °F 57% 30.24 in 10.0 mi WSW 10.4 mph - N/A   Clear
4:53 PM 35.1 °F 32.2 °F 21.0 °F 57% 30.26 in 10.0 mi West 3.5 mph - N/A   Clear
5:53 PM 35.1 °F 30.1 °F 21.0 °F 57% 30.27 in 10.0 mi West 5.8 mph - N/A   Clear
6:53 PM 34.0 °F 28.8 °F 19.9 °F 56% 30.28 in 10.0 mi Variable 5.8 mph - N/A   Clear
7:53 PM 32.0 °F 27.5 °F 19.9 °F 61% 30.30 in 10.0 mi West 4.6 mph - N/A   Clear
8:53 PM 30.9 °F 27.5 °F 19.0 °F 61% 30.30 in 10.0 mi WNW 3.5 mph - N/A   Clear
9:53 PM 32.0 °F 28.7 °F 19.9 °F 61% 30.30 in 10.0 mi West 3.5 mph - N/A   Clear
10:53 PM 32.0 °F 28.7 °F 19.9 °F 61% 30.30 in 10.0 mi West 3.5 mph - N/A   Clear
11:53 PM 30.9 °F - 19.9 °F 64% 30.28 in 10.0 mi Calm Calm - N/A   Clear